Time,TemperatureF,DewpointF,PressureIn,WindDirection,WindDirectionDegrees,WindSpeedMPH,WindSpeedGustMPH,Humidity,HourlyPrecipIn,Conditions,Clouds,dailyrainin,SoftwareType,DateUTC
2013-06-18 00:02:00,62.0,-99.9,-100.00,North,-999,-999.0,-999.0,-999,0.00,,,0.00,,2013-06-18 06:02:00,
2013-06-18 00:12:00,62.0,-99.9,-100.00,North,-999,-999.0,-999.0,-999,0.00,,,0.00,,2013-06-18 06:12:00,
2013-06-18 00:24:00,62.0,-99.9,-100.00,North,-999,-999.0,-999.0,-999,0.00,,,0.00,,2013-06-18 06:24:00,
2013-06-18 00:30:00,60.0,-99.9,-100.00,North,-999,-999.0,-999.0,-999,0.00,,,0.00,,2013-06-18 06:30:00,
2013-06-18 01:02:00,60.0,-99.9,-100.00,North,-999,-999.0,-999.0,-999,0.00,,,0.00,,2013-06-18 07:02:00,
2013-06-18 01:12:00,60.0,-99.9,-100.00,North,-999,-999.0,-999.0,-999,0.00,,,0.00,,2013-06-18 07:12:00,
2013-06-18 01:22:00,60.0,-99.9,-100.00,North,-999,-999.0,-999.0,-999,0.00,,,0.00,,2013-06-18 07:22:00,
2013-06-18 02:02:00,61.0,-99.9,-100.00,North,-999,-999.0,-999.0,-999,0.00,,,0.00,,2013-06-18 08:02:00,
2013-06-18 02:11:00,61.0,-99.9,-100.00,North,-999,-999.0,-999.0,-999,0.00,,,0.00,,2013-06-18 08:11:00,
2013-06-18 02:30:00,58.0,-99.9,-100.00,North,-999,-999.0,-999.0,-999,0.00,,,0.00,,2013-06-18 08:30:00,
2013-06-18 03:02:00,58.0,-99.9,-100.00,North,-999,-999.0,-999.0,-999,0.00,,,0.00,,2013-06-18 09:02:00,
2013-06-18 03:12:00,58.0,-99.9,-100.00,North,-999,-999.0,-999.0,-999,0.00,,,0.00,,2013-06-18 09:12:00,
2013-06-18 03:22:00,58.0,-99.9,-100.00,North,-999,-999.0,-999.0,-999,0.00,,,0.00,,2013-06-18 09:22:00,
2013-06-18 03:30:00,55.0,-99.9,-100.00,North,-999,-999.0,-999.0,-999,0.01,,,0.01,,2013-06-18 09:30:00,
2013-06-18 04:02:00,55.0,-99.9,-100.00,North,-999,-999.0,-999.0,-999,0.01,,,0.01,,2013-06-18 10:02:00,
2013-06-18 04:12:00,55.0,-99.9,-100.00,North,-999,-999.0,-999.0,-999,0.01,,,0.01,,2013-06-18 10:12:00,
2013-06-18 04:22:00,55.0,-99.9,-100.00,North,-999,-999.0,-999.0,-999,0.01,,,0.01,,2013-06-18 10:22:00,
2013-06-18 04:30:00,54.0,-99.9,-100.00,North,-999,-999.0,-999.0,-999,0.00,,,0.01,,2013-06-18 10:30:00,
2013-06-18 05:02:00,54.0,-99.9,-100.00,North,-999,-999.0,-999.0,-999,0.00,,,0.01,,2013-06-18 11:02:00,
2013-06-18 05:11:00,54.0,-99.9,-100.00,North,-999,-999.0,-999.0,-999,0.00,,,0.01,,2013-06-18 11:11:00,
2013-06-18 05:22:00,54.0,-99.9,-100.00,North,-999,-999.0,-999.0,-999,0.00,,,0.01,,2013-06-18 11:22:00,
2013-06-18 05:30:00,53.0,-99.9,-100.00,North,-999,-999.0,-999.0,-999,0.00,,,0.01,,2013-06-18 11:30:00,
2013-06-18 06:02:00,53.0,-99.9,-100.00,North,-999,-999.0,-999.0,-999,0.00,,,0.01,,2013-06-18 12:02:00,
2013-06-18 06:12:00,53.0,-99.9,-100.00,North,-999,-999.0,-999.0,-999,0.00,,,0.01,,2013-06-18 12:12:00,
2013-06-18 06:22:00,53.0,-99.9,-100.00,North,-999,-999.0,-999.0,-999,0.00,,,0.01,,2013-06-18 12:22:00,
2013-06-18 06:30:00,52.0,-99.9,-100.00,North,-999,-999.0,-999.0,-999,0.00,,,0.01,,2013-06-18 12:30:00,
2013-06-18 07:02:00,52.0,-99.9,-100.00,North,-999,-999.0,-999.0,-999,0.00,,,0.01,,2013-06-18 13:02:00,
2013-06-18 07:12:00,52.0,-99.9,-100.00,North,-999,-999.0,-999.0,-999,0.00,,,0.01,,2013-06-18 13:12:00,
2013-06-18 07:22:00,52.0,-99.9,-100.00,North,-999,-999.0,-999.0,-999,0.00,,,0.01,,2013-06-18 13:22:00,
2013-06-18 07:30:00,53.0,-99.9,-100.00,North,-999,-999.0,-999.0,-999,0.00,,,0.01,,2013-06-18 13:30:00,
2013-06-18 08:02:00,53.0,-99.9,-100.00,North,-999,-999.0,-999.0,-999,0.00,,,0.01,,2013-06-18 14:02:00,
2013-06-18 08:12:00,53.0,-99.9,-100.00,North,-999,-999.0,-999.0,-999,0.00,,,0.01,,2013-06-18 14:12:00,
2013-06-18 08:22:00,53.0,-99.9,-100.00,North,-999,-999.0,-999.0,-999,0.00,,,0.01,,2013-06-18 14:22:00,
2013-06-18 08:30:00,57.0,-99.9,-100.00,North,-999,-999.0,-999.0,-999,-99.99,,,0.00,,2013-06-18 14:30:00,
2013-06-18 09:02:00,57.0,-99.9,-100.00,North,-999,-999.0,-999.0,-999,-99.99,,,0.00,,2013-06-18 15:02:00,
2013-06-18 09:11:00,57.0,-99.9,-100.00,North,-999,-999.0,-999.0,-999,-99.99,,,0.00,,2013-06-18 15:11:00,
2013-06-18 09:22:00,57.0,-99.9,-100.00,North,-999,-999.0,-999.0,-999,-99.99,,,0.00,,2013-06-18 15:22:00,
2013-06-18 09:30:00,64.0,-99.9,-100.00,North,-999,-999.0,-999.0,-999,0.01,,,0.01,,2013-06-18 15:30:00,
2013-06-18 10:02:00,64.0,-99.9,-100.00,North,-999,-999.0,-999.0,-999,0.01,,,0.01,,2013-06-18 16:02:00,
2013-06-18 10:12:00,64.0,-99.9,-100.00,North,-999,-999.0,-999.0,-999,0.01,,,0.01,,2013-06-18 16:12:00,
2013-06-18 10:23:00,64.0,-99.9,-100.00,North,-999,-999.0,-999.0,-999,0.01,,,0.01,,2013-06-18 16:23:00,
2013-06-18 10:30:00,69.0,-99.9,-100.00,North,-999,-999.0,-999.0,-999,-99.99,,,-99.99,,2013-06-18 16:30:00,
2013-06-18 11:02:00,69.0,-99.9,-100.00,North,-999,-999.0,-999.0,-999,-99.99,,,-99.99,,2013-06-18 17:02:00,
2013-06-18 11:12:00,69.0,-99.9,-100.00,North,-999,-999.0,-999.0,-999,-99.99,,,-99.99,,2013-06-18 17:12:00,
2013-06-18 11:23:00,69.0,-99.9,-100.00,North,-999,-999.0,-999.0,-999,-99.99,,,-99.99,,2013-06-18 17:23:00,
2013-06-18 11:30:00,72.0,-99.9,-100.00,North,-999,-999.0,-999.0,-999,-99.99,,,-99.99,,2013-06-18 17:30:00,
2013-06-18 11:54:00,72.0,-99.9,-100.00,North,-999,-999.0,-999.0,-999,-99.99,,,-99.99,,2013-06-18 17:54:00,
2013-06-18 12:02:00,72.0,-99.9,-100.00,North,-999,-999.0,-999.0,-999,-99.99,,,-99.99,,2013-06-18 18:02:00,
2013-06-18 12:12:00,72.0,-99.9,-100.00,North,-999,-999.0,-999.0,-999,-99.99,,,-99.99,,2013-06-18 18:12:00,
2013-06-18 12:22:00,72.0,-99.9,-100.00,North,-999,-999.0,-999.0,-999,-99.99,,,-99.99,,2013-06-18 18:22:00,
2013-06-18 12:30:00,76.0,-99.9,-100.00,North,-999,-999.0,-999.0,-999,0.02,,,-99.99,,2013-06-18 18:30:00,
2013-06-18 12:53:00,76.0,-99.9,-100.00,North,-999,-999.0,-999.0,-999,0.02,,,-99.99,,2013-06-18 18:53:00,
2013-06-18 13:02:00,76.0,-99.9,-100.00,North,-999,-999.0,-999.0,-999,0.02,,,-99.99,,2013-06-18 19:02:00,
2013-06-18 13:12:00,76.0,-99.9,-100.00,North,-999,-999.0,-999.0,-999,0.02,,,-99.99,,2013-06-18 19:12:00,
2013-06-18 13:22:00,76.0,-99.9,-100.00,North,-999,-999.0,-999.0,-999,0.02,,,-99.99,,2013-06-18 19:22:00,
2013-06-18 13:30:00,79.0,-99.9,-100.00,North,-999,-999.0,-999.0,-999,-99.99,,,-99.99,,2013-06-18 19:30:00,
2013-06-18 14:02:00,79.0,-99.9,-100.00,North,-999,-999.0,-999.0,-999,-99.99,,,-99.99,,2013-06-18 20:02:00,
2013-06-18 14:12:00,79.0,-99.9,-100.00,North,-999,-999.0,-999.0,-999,-99.99,,,-99.99,,2013-06-18 20:12:00,
2013-06-18 14:23:00,79.0,-99.9,-100.00,North,-999,-999.0,-999.0,-999,-99.99,,,-99.99,,2013-06-18 20:23:00,
2013-06-18 14:30:00,80.0,-99.9,-100.00,North,-999,-999.0,-999.0,-999,0.02,,,0.03,,2013-06-18 20:30:00,
2013-06-18 15:02:00,80.0,-99.9,-100.00,North,-999,-999.0,-999.0,-999,0.02,,,0.03,,2013-06-18 21:02:00,
2013-06-18 15:12:00,80.0,-99.9,-100.00,North,-999,-999.0,-999.0,-999,0.02,,,0.03,,2013-06-18 21:12:00,
2013-06-18 15:23:00,80.0,-99.9,-100.00,North,-999,-999.0,-999.0,-999,0.02,,,0.03,,2013-06-18 21:23:00,
2013-06-18 15:30:00,82.0,-99.9,-100.00,North,-999,-999.0,-999.0,-999,-99.99,,,0.02,,2013-06-18 21:30:00,
2013-06-18 15:53:00,82.0,-99.9,-100.00,North,-999,-999.0,-999.0,-999,-99.99,,,0.02,,2013-06-18 21:53:00,
2013-06-18 16:02:00,82.0,-99.9,-100.00,North,-999,-999.0,-999.0,-999,-99.99,,,0.02,,2013-06-18 22:02:00,
2013-06-18 16:12:00,82.0,-99.9,-100.00,North,-999,-999.0,-999.0,-999,-99.99,,,0.02,,2013-06-18 22:12:00,
2013-06-18 16:22:00,82.0,-99.9,-100.00,North,-999,-999.0,-999.0,-999,-99.99,,,0.02,,2013-06-18 22:22:00,
2013-06-18 16:30:00,82.0,-99.9,-100.00,North,-999,-999.0,-999.0,-999,-99.99,,,0.01,,2013-06-18 22:30:00,
2013-06-18 17:02:00,82.0,-99.9,-100.00,North,-999,-999.0,-999.0,-999,-99.99,,,0.01,,2013-06-18 23:02:00,
2013-06-18 17:12:00,82.0,-99.9,-100.00,North,-999,-999.0,-999.0,-999,-99.99,,,0.01,,2013-06-18 23:12:00,
2013-06-18 17:23:00,82.0,-99.9,-100.00,North,-999,-999.0,-999.0,-999,-99.99,,,0.01,,2013-06-18 23:23:00,
2013-06-18 17:30:00,81.0,-99.9,-100.00,North,-999,-999.0,-999.0,-999,0.00,,,-99.99,,2013-06-18 23:30:00,
2013-06-18 18:02:00,81.0,-99.9,-100.00,North,-999,-999.0,-999.0,-999,0.00,,,-99.99,,2013-06-19 00:02:00,
2013-06-18 18:12:00,81.0,-99.9,-100.00,North,-999,-999.0,-999.0,-999,0.00,,,-99.99,,2013-06-19 00:12:00,
2013-06-18 18:22:00,81.0,-99.9,-100.00,North,-999,-999.0,-999.0,-999,0.00,,,-99.99,,2013-06-19 00:22:00,
2013-06-18 18:30:00,76.0,-99.9,-100.00,North,-999,-999.0,-999.0,-999,0.02,,,0.03,,2013-06-19 00:30:00,
2013-06-18 19:02:00,76.0,-99.9,-100.00,North,-999,-999.0,-999.0,-999,0.02,,,0.03,,2013-06-19 01:02:00,
2013-06-18 19:12:00,76.0,-99.9,-100.00,North,-999,-999.0,-999.0,-999,0.02,,,0.03,,2013-06-19 01:12:00,
2013-06-18 19:22:00,76.0,-99.9,-100.00,North,-999,-999.0,-999.0,-999,0.02,,,0.03,,2013-06-19 01:22:00,
2013-06-18 19:30:00,71.0,-99.9,-100.00,North,-999,-999.0,-999.0,-999,-99.99,,,0.01,,2013-06-19 01:30:00,
2013-06-18 20:02:00,71.0,-99.9,-100.00,North,-999,-999.0,-999.0,-999,-99.99,,,0.01,,2013-06-19 02:02:00,
2013-06-18 20:11:00,71.0,-99.9,-100.00,North,-999,-999.0,-999.0,-999,-99.99,,,0.01,,2013-06-19 02:11:00,
2013-06-18 20:21:00,71.0,-99.9,-100.00,North,-999,-999.0,-999.0,-999,-99.99,,,0.01,,2013-06-19 02:21:00,
2013-06-18 20:30:00,64.0,-99.9,-100.00,North,-999,-999.0,-999.0,-999,0.00,,,0.02,,2013-06-19 02:30:00,
2013-06-18 20:52:00,64.0,-99.9,-100.00,North,-999,-999.0,-999.0,-999,0.00,,,0.02,,2013-06-19 02:52:00,
2013-06-18 21:01:00,64.0,-99.9,-100.00,North,-999,-999.0,-999.0,-999,0.00,,,0.02,,2013-06-19 03:01:00,
2013-06-18 21:12:00,64.0,-99.9,-100.00,North,-999,-999.0,-999.0,-999,0.00,,,0.02,,2013-06-19 03:12:00,
2013-06-18 21:22:00,64.0,-99.9,-100.00,North,-999,-999.0,-999.0,-999,0.00,,,0.02,,2013-06-19 03:22:00,
2013-06-18 21:30:00,63.0,-99.9,-100.00,North,-999,-999.0,-999.0,-999,0.01,,,0.04,,2013-06-19 03:30:00,
2013-06-18 21:53:00,63.0,-99.9,-100.00,North,-999,-999.0,-999.0,-999,0.01,,,0.04,,2013-06-19 03:53:00,
2013-06-18 22:02:00,63.0,-99.9,-100.00,North,-999,-999.0,-999.0,-999,0.01,,,0.04,,2013-06-19 04:02:00,
2013-06-18 22:12:00,63.0,-99.9,-100.00,North,-999,-999.0,-999.0,-999,0.01,,,0.04,,2013-06-19 04:12:00,
2013-06-18 22:23:00,63.0,-99.9,-100.00,North,-999,-999.0,-999.0,-999,0.01,,,0.04,,2013-06-19 04:23:00,
2013-06-18 22:30:00,62.0,-99.9,-100.00,North,-999,-999.0,-999.0,-999,0.00,,,0.01,,2013-06-19 04:30:00,
2013-06-18 22:53:00,62.0,-99.9,-100.00,North,-999,-999.0,-999.0,-999,0.00,,,0.01,,2013-06-19 04:53:00,
2013-06-18 23:02:00,62.0,-99.9,-100.00,North,-999,-999.0,-999.0,-999,0.00,,,0.01,,2013-06-19 05:02:00,
2013-06-18 23:11:00,62.0,-99.9,-100.00,North,-999,-999.0,-999.0,-999,0.00,,,0.01,,2013-06-19 05:11:00,
2013-06-18 23:23:00,62.0,-99.9,-100.00,North,-999,-999.0,-999.0,-999,0.00,,,0.01,,2013-06-19 05:23:00,
2013-06-18 23:30:00,61.0,-99.9,-100.00,North,-999,-999.0,-999.0,-999,-99.99,,,0.00,,2013-06-19 05:30:00,
2013-06-18 23:53:00,61.0,-99.9,-100.00,North,-999,-999.0,-999.0,-999,-99.99,,,0.00,,2013-06-19 05:53:00,